�������l�o���
Date,Time,MP-1(��Sv/h),MP-2(��Sv/h),MP-3(��Sv/h),MP-4(��Sv/h),MP-5(��Sv/h),MP-6(��Sv/h),MP-7(��Sv/h),MP-8(��Sv/h),����,����(m/s),���J
2024/02/10,00:00,0.501,0.758,0.477,0.950,0.682,0.306,0.553,0.519,�k�k��,6.4,��
2024/02/10,00:10,0.500,0.757,0.479,0.949,0.681,0.308,0.553,0.518,�k��,7.2,��
2024/02/10,00:20,0.501,0.758,0.478,0.949,0.682,0.308,0.553,0.518,�k��,7.6,��
2024/02/10,00:30,0.501,0.758,0.478,0.952,0.682,0.309,0.554,0.519,�k��,6.2,��
2024/02/10,00:40,0.501,0.759,0.478,0.951,0.682,0.308,0.552,0.520,�k�k��,7.4,��
2024/02/10,00:50,0.501,0.757,0.478,0.951,0.681,0.309,0.554,0.518,�k�k��,7.0,��
2024/02/10,01:00,0.501,0.756,0.478,0.950,0.680,0.308,0.552,0.519,�k��,6.8,��
2024/02/10,01:10,0.502,0.756,0.477,0.948,0.681,0.308,0.552,0.518,�k��,7.8,��
2024/02/10,01:20,0.501,0.755,0.478,0.950,0.681,0.308,0.553,0.519,�k�k��,7.9,��
2024/02/10,01:30,0.502,0.758,0.478,0.949,0.683,0.307,0.554,0.519,�k�k��,8.4,��
2024/02/10,01:40,0.502,0.756,0.476,0.951,0.681,0.309,0.552,0.517,�k�k��,9.1,��
2024/02/10,01:50,0.502,0.758,0.477,0.951,0.680,0.308,0.555,0.518,�k�k��,8.9,��
2024/02/10,02:00,0.501,0.757,0.476,0.950,0.681,0.308,0.553,0.519,�k�k��,8.4,��
2024/02/10,02:10,0.500,0.756,0.477,0.950,0.680,0.309,0.554,0.519,�k��,8.7,��
2024/02/10,02:20,0.501,0.757,0.480,0.949,0.680,0.308,0.552,0.518,�k�k��,8.4,��
2024/02/10,02:30,0.502,0.756,0.477,0.951,0.679,0.307,0.553,0.518,�k�k��,8.2,��
2024/02/10,02:40,0.501,0.758,0.478,0.950,0.679,0.307,0.553,0.518,�k�k��,8.2,��
2024/02/10,02:50,0.501,0.756,0.477,0.950,0.680,0.308,0.553,0.517,�k�k��,8.1,��
2024/02/10,03:00,0.501,0.758,0.479,0.949,0.681,0.308,0.554,0.519,�k�k��,7.1,��
2024/02/10,03:10,0.500,0.757,0.479,0.950,0.682,0.308,0.555,0.519,�k�k��,7.2,��
2024/02/10,03:20,0.500,0.756,0.478,0.950,0.680,0.309,0.554,0.518,�k��,7.5,��
2024/02/10,03:30,0.501,0.757,0.479,0.950,0.682,0.307,0.554,0.519,�k��,7.5,��
2024/02/10,03:40,0.501,0.754,0.478,0.949,0.681,0.308,0.553,0.519,�k��,6.3,��
2024/02/10,03:50,0.501,0.756,0.478,0.952,0.682,0.308,0.553,0.518,�k��,7.5,��
2024/02/10,04:00,0.500,0.757,0.478,0.950,0.680,0.308,0.553,0.518,�k��,7.5,��
2024/02/10,04:10,0.502,0.756,0.478,0.952,0.680,0.309,0.553,0.518,�k��,8.1,��
2024/02/10,04:20,0.502,0.755,0.477,0.949,0.681,0.308,0.551,0.521,�k��,7.7,��
2024/02/10,04:30,0.500,0.755,0.477,0.950,0.680,0.308,0.552,0.519,�k��,7.0,��
2024/02/10,04:40,0.500,0.756,0.479,0.950,0.680,0.307,0.554,0.519,�k��,7.2,��
2024/02/10,04:50,0.501,0.757,0.476,0.950,0.680,0.306,0.553,0.518,�k�k��,6.5,��
2024/02/10,05:00,0.502,0.756,0.477,0.950,0.681,0.309,0.552,0.519,�k�k��,7.0,��
2024/02/10,05:10,0.501,0.756,0.476,0.952,0.680,0.306,0.552,0.519,�k��,7.1,��
2024/02/10,05:20,0.500,0.757,0.477,0.951,0.682,0.308,0.551,0.520,�k��,7.7,��
2024/02/10,05:30,0.501,0.756,0.476,0.951,0.678,0.309,0.553,0.518,�k��,7.7,��
2024/02/10,05:40,0.502,0.755,0.477,0.953,0.678,0.308,0.551,0.517,�k�k��,7.5,��
2024/02/10,05:50,0.500,0.755,0.477,0.952,0.678,0.307,0.554,0.519,�k��,7.0,��
2024/02/10,06:00,0.500,0.756,0.478,0.948,0.679,0.306,0.553,0.519,�k��,6.7,��
2024/02/10,06:10,0.499,0.757,0.477,0.951,0.680,0.308,0.552,0.518,�k��,7.0,��
2024/02/10,06:20,0.500,0.756,0.478,0.951,0.680,0.309,0.553,0.518,�k��,6.5,��
2024/02/10,06:30,0.499,0.755,0.477,0.950,0.680,0.308,0.553,0.517,�k��,6.4,��
2024/02/10,06:40,0.499,0.756,0.477,0.949,0.680,0.307,0.551,0.519,�k��,6.8,��
2024/02/10,06:50,0.501,0.755,0.476,0.952,0.679,0.308,0.553,0.517,�k��,7.3,��
2024/02/10,07:00,0.501,0.756,0.476,0.950,0.681,0.307,0.553,0.517,�k��,7.4,��
2024/02/10,07:10,0.501,0.756,0.477,0.950,0.680,0.308,0.553,0.518,�k��,7.2,��
2024/02/10,07:20,0.499,0.757,0.479,0.952,0.680,0.308,0.553,0.517,�k�k��,6.2,��
2024/02/10,07:30,0.500,0.756,0.477,0.952,0.678,0.307,0.554,0.520,�k��,7.0,��
2024/02/10,07:40,0.501,0.759,0.477,0.950,0.679,0.308,0.552,0.519,�k�k��,6.1,��
2024/02/10,07:50,0.502,0.757,0.477,0.951,0.680,0.308,0.553,0.520,�k�k��,6.9,��
2024/02/10,08:00,0.501,0.757,0.476,0.952,0.680,0.308,0.554,0.519,�k��,6.7,��
2024/02/10,08:10,0.501,0.756,0.476,0.952,0.679,0.307,0.551,0.519,�k�k��,7.1,��
2024/02/10,08:20,0.501,0.755,0.478,0.954,0.678,0.308,0.553,0.518,�k�k��,6.3,��
2024/02/10,08:30,0.500,0.756,0.479,0.950,0.681,0.308,0.552,0.519,�k�k��,6.6,��
2024/02/10,08:40,0.502,0.756,0.478,0.952,0.679,0.310,0.554,0.519,�k�k��,6.6,��
2024/02/10,08:50,0.501,0.758,0.476,0.951,0.680,0.308,0.553,0.520,�k�k��,5.8,��
2024/02/10,09:00,0.502,0.757,0.477,0.952,0.680,0.309,0.555,0.519,�k�k��,4.8,��
2024/02/10,09:10,0.500,0.758,0.477,0.953,0.680,0.308,0.553,0.520,�k�k��,5.1,��
2024/02/10,09:20,0.502,0.759,0.478,0.951,0.681,0.308,0.555,0.519,�k�k��,5.0,��
2024/02/10,09:30,0.503,0.759,0.478,0.953,0.681,0.308,0.554,0.518,�k�k��,4.7,��
2024/02/10,09:40,0.502,0.759,0.480,0.952,0.682,0.309,0.551,0.520,�k�k��,4.9,��
2024/02/10,09:50,0.502,0.758,0.479,0.953,0.680,0.309,0.552,0.519,�k�k��,3.9,��
2024/02/10,10:00,0.503,0.758,0.478,0.953,0.680,0.309,0.553,0.520,�k,3.2,��
2024/02/10,10:10,0.501,0.754,0.479,0.953,0.683,0.309,0.552,0.519,�k,3.1,��
2024/02/10,10:20,0.502,0.757,0.480,0.951,0.683,0.309,0.552,0.520,�k�k��,3.1,��
2024/02/10,10:30,0.500,0.755,0.478,0.951,0.683,0.309,0.552,0.519,�k�k��,3.1,��
2024/02/10,10:40,0.501,0.758,0.478,0.952,0.683,0.309,0.552,0.521,�k�k��,3.2,��
2024/02/10,10:50,0.501,0.757,0.478,0.952,0.682,0.309,0.553,0.520,�k��,3.1,��
2024/02/10,11:00,0.502,0.757,0.478,0.953,0.682,0.309,0.553,0.522,�k�k��,3.7,��
2024/02/10,11:10,0.503,0.758,0.480,0.952,0.683,0.308,0.552,0.520,�k�k��,4.3,��
2024/02/10,11:20,0.501,0.755,0.479,0.951,0.683,0.309,0.552,0.521,�k�k��,4.4,��
2024/02/10,11:30,0.503,0.758,0.479,0.951,0.684,0.308,0.551,0.518,�k�k��,4.6,��
2024/02/10,11:40,0.502,0.758,0.478,0.951,0.684,0.309,0.551,0.521,�k�k��,4.7,��
2024/02/10,11:50,0.503,0.759,0.480,0.952,0.683,0.309,0.552,0.520,�k�k��,4.3,��
2024/02/10,12:00,0.502,0.760,0.480,0.952,0.684,0.308,0.551,0.519,�k�k��,4.2,��
2024/02/10,12:10,0.503,0.758,0.478,0.953,0.683,0.310,0.552,0.520,�k�k��,3.4,��
2024/02/10,12:20,0.503,0.758,0.481,0.953,0.685,0.309,0.551,0.520,�k��,3.8,��
2024/02/10,12:30,0.505,0.760,0.478,0.952,0.684,0.309,0.552,0.522,�k��,3.5,��
2024/02/10,12:40,0.504,0.759,0.481,0.951,0.684,0.310,0.552,0.520,���k��,2.9,��
2024/02/10,12:50,0.503,0.759,0.481,0.953,0.685,0.309,0.553,0.520,���k��,2.6,��
2024/02/10,13:00,0.505,0.757,0.481,0.953,0.683,0.309,0.552,0.519,���k��,2.9,��
2024/02/10,13:10,0.503,0.761,0.478,0.953,0.684,0.310,0.553,0.522,���k��,2.0,��
2024/02/10,13:20,0.504,0.758,0.480,0.953,0.684,0.311,0.550,0.521,�k��,2.6,��
2024/02/10,13:30,0.503,0.761,0.480,0.953,0.683,0.311,0.553,0.520,�k��,2.9,��
2024/02/10,13:40,0.503,0.760,0.479,0.951,0.686,0.310,0.551,0.519,���k��,2.3,��
2024/02/10,13:50,0.504,0.760,0.480,0.953,0.685,0.310,0.551,0.519,���k��,2.6,��
2024/02/10,14:00,0.504,0.761,0.481,0.952,0.684,0.311,0.551,0.520,��,2.6,��
2024/02/10,14:10,0.501,0.759,0.482,0.953,0.686,0.311,0.552,0.518,��,2.0,��
2024/02/10,14:20,0.503,0.761,0.478,0.953,0.686,0.310,0.552,0.518,��,2.2,��
2024/02/10,14:30,0.503,0.764,0.480,0.954,0.685,0.309,0.553,0.519,��,2.3,��
2024/02/10,14:40,0.503,0.761,0.480,0.955,0.684,0.310,0.552,0.518,���k��,1.7,��
2024/02/10,14:50,0.504,0.761,0.481,0.953,0.686,0.309,0.553,0.518,�k��,2.3,��
2024/02/10,15:00,0.503,0.760,0.480,0.955,0.685,0.310,0.552,0.518,���쓌,2.3,��
2024/02/10,15:10,0.502,0.760,0.482,0.953,0.685,0.312,0.554,0.519,���쓌,1.5,��
2024/02/10,15:20,0.503,0.761,0.480,0.952,0.687,0.310,0.553,0.519,�쓌,2.3,��
2024/02/10,15:30,0.502,0.760,0.481,0.954,0.685,0.310,0.553,0.520,�쓌,3.0,��
2024/02/10,15:40,0.502,0.762,0.482,0.951,0.686,0.311,0.553,0.520,�쓌,2.6,��
2024/02/10,15:50,0.503,0.763,0.482,0.953,0.685,0.311,0.555,0.520,��쓌,2.6,��
2024/02/10,16:00,0.502,0.764,0.482,0.953,0.685,0.310,0.555,0.519,��쓌,2.0,��
2024/02/10,16:10,0.503,0.763,0.481,0.952,0.687,0.310,0.555,0.520,��쓌,1.9,��
2024/02/10,16:20,0.504,0.763,0.481,0.953,0.687,0.310,0.554,0.520,��쓌,2.3,��
2024/02/10,16:30,0.504,0.763,0.482,0.955,0.684,0.312,0.555,0.519,��,1.7,��
2024/02/10,16:40,0.503,0.764,0.482,0.952,0.685,0.312,0.555,0.519,��,1.1,��
2024/02/10,16:50,0.503,0.763,0.483,0.954,0.685,0.309,0.556,0.519,��,1.1,��
2024/02/10,17:00,0.503,0.763,0.480,0.953,0.686,0.312,0.555,0.521,��,1.9,��
2024/02/10,17:10,0.505,0.764,0.482,0.953,0.687,0.311,0.554,0.519,��,1.8,��
2024/02/10,17:20,0.506,0.763,0.482,0.953,0.688,0.312,0.553,0.519,��쐼,2.0,��
2024/02/10,17:30,0.504,0.762,0.481,0.953,0.688,0.311,0.553,0.521,��쐼,1.9,�L
2024/02/10,17:40,0.503,0.764,0.481,0.953,0.686,0.310,0.552,0.519,��,3.2,�L
2024/02/10,17:50,0.504,0.765,0.482,0.955,0.688,0.311,0.554,0.519,��,3.2,��
2024/02/10,18:00,0.506,0.763,0.481,0.953,0.687,0.310,0.554,0.520,��쐼,2.9,��
2024/02/10,18:10,0.504,0.763,0.481,0.954,0.686,0.312,0.554,0.518,��쐼,2.8,��
2024/02/10,18:20,0.505,0.763,0.482,0.952,0.689,0.310,0.554,0.519,�쐼,3.4,��
2024/02/10,18:30,0.503,0.762,0.483,0.954,0.689,0.311,0.553,0.519,�쐼,4.1,��
2024/02/10,18:40,0.506,0.764,0.480,0.953,0.687,0.311,0.554,0.519,�쐼,5.2,��
2024/02/10,18:50,0.504,0.764,0.482,0.955,0.687,0.310,0.555,0.519,���쐼,4.8,��
2024/02/10,19:00,0.504,0.765,0.482,0.952,0.687,0.311,0.555,0.519,���쐼,4.4,��
2024/02/10,19:10,0.505,0.764,0.482,0.954,0.689,0.310,0.554,0.518,���쐼,3.5,��
2024/02/10,19:20,0.504,0.764,0.483,0.953,0.688,0.311,0.554,0.518,���쐼,3.4,��
2024/02/10,19:30,0.505,0.765,0.482,0.955,0.688,0.310,0.554,0.520,��,4.7,��
2024/02/10,19:40,0.503,0.765,0.483,0.954,0.687,0.310,0.554,0.520,��,5.6,��
2024/02/10,19:50,0.506,0.763,0.482,0.956,0.686,0.310,0.553,0.519,���k��,3.8,��
2024/02/10,20:00,0.506,0.763,0.482,0.953,0.686,0.311,0.554,0.520,��,3.1,��
2024/02/10,20:10,0.505,0.763,0.481,0.955,0.687,0.310,0.554,0.519,��,3.2,��
2024/02/10,20:20,0.504,0.764,0.483,0.954,0.686,0.311,0.553,0.519,��,3.1,��
2024/02/10,20:30,0.504,0.763,0.482,0.955,0.686,0.311,0.555,0.520,���k��,3.3,��
2024/02/10,20:40,0.503,0.764,0.482,0.954,0.687,0.311,0.556,0.519,���k��,2.6,��
2024/02/10,20:50,0.505,0.762,0.481,0.955,0.688,0.312,0.555,0.519,�k��,2.0,��
2024/02/10,21:00,0.506,0.764,0.481,0.954,0.687,0.311,0.554,0.520,��,1.1,��
2024/02/10,21:10,0.505,0.764,0.482,0.953,0.688,0.311,0.553,0.519,���쐼,0.8,��
2024/02/10,21:20,0.504,0.762,0.481,0.954,0.687,0.312,0.553,0.518,�쐼,3.1,��
2024/02/10,21:30,0.504,0.762,0.480,0.954,0.689,0.310,0.554,0.519,���쐼,3.9,��
2024/02/10,21:40,0.505,0.763,0.483,0.955,0.686,0.311,0.554,0.518,��,3.6,��
2024/02/10,21:50,0.505,0.762,0.482,0.955,0.687,0.310,0.555,0.520,���k��,4.3,��
2024/02/10,22:00,0.504,0.765,0.481,0.954,0.687,0.311,0.554,0.519,�k��,1.9,��
2024/02/10,22:10,0.504,0.763,0.480,0.954,0.685,0.311,0.554,0.519,��,3.5,��
2024/02/10,22:20,0.503,0.764,0.481,0.955,0.687,0.311,0.554,0.519,��,5.5,��
2024/02/10,22:30,0.505,0.763,0.481,0.953,0.687,0.311,0.555,0.520,��,6.5,��
2024/02/10,22:40,0.503,0.763,0.481,0.955,0.688,0.310,0.555,0.518,��,7.6,��
2024/02/10,22:50,0.504,0.762,0.482,0.955,0.689,0.311,0.553,0.520,���k��,7.6,��
2024/02/10,23:00,0.505,0.764,0.482,0.954,0.687,0.310,0.555,0.518,��,6.6,��
2024/02/10,23:10,0.505,0.762,0.481,0.956,0.687,0.311,0.555,0.518,��,9.6,��
2024/02/10,23:20,0.503,0.765,0.481,0.956,0.688,0.310,0.555,0.520,��,9.2,��
2024/02/10,23:30,0.504,0.762,0.482,0.953,0.686,0.311,0.555,0.520,��,7.7,��
2024/02/10,23:40,0.503,0.762,0.480,0.954,0.688,0.311,0.555,0.519,���k��,7.1,��
2024/02/10,23:50,0.504,0.764,0.482,0.954,0.687,0.310,0.554,0.519,��,7.0,��
